{"data":{"norad_id":41581,"intl_designator":"2016-035A","name":"INTELSAT 31 (IS-31)","alt_names":[],"object_type":"PAYLOAD","status":"ACTIVE","operator":null,"country":"ITSO","launch_date":"2016-06-09","launch_site_code":"TYMSC","launch_vehicle":null,"mission":null,"orbit_class":"UNKNOWN","rcs_meters":7.8945,"size_class":null,"mass_kg":null,"dimensions":null,"purposes":["comms"],"wikipedia_slug":null,"has_3d_model":false,"image_url":null,"decayed_at":null,"tle_current":{"epoch":"2026-05-24T13:36:08.915904Z","epoch_age_seconds":112533,"freshness":"FRESH","line1":"1 41581U 16035A   26144.56676986 -.00000155  00000+0  00000+0 0  9994","line2":"2 41581   0.0128 255.2233 0001209  17.5633  78.3655  1.00273589 36447","mean_motion":1.00273589,"eccentricity":0.0001209,"inclination_deg":0.0128,"raan_deg":255.2233,"arg_perigee_deg":17.5633,"mean_anomaly_deg":78.3655,"bstar":0,"rev_number":3644,"period_min":1436.0710675271,"perigee_km":35780.991587133,"apogee_km":35791.186897038,"semimajor_km":42164.226242086,"source":"CELESTRAK","updated_at":"2026-05-25T13:38:14.334734Z"}}}